Weather History for Alpena, MI

Change the Weather History Date:

Monday, April 1, 2013

  Actual Average Record
Temperature  
Mean Temperature 25 °F 35 °F  
Max Temperature 30 °F 45 °F 74 °F (1945)
Min Temperature 20 °F 26 °F -6 °F (1923)
Degree Days  
Heating Degree Days 40 30  
Month to date heating degree days 40 30  
Since 1 July heating degree days 6491 6886  
Cooling Degree Days 0 0  
Month to date cooling degree days 0 0  
Year to date cooling degree days 0 0  
Moisture  
Dew Point 11 °F    
Average Humidity 55    
Maximum Humidity 68    
Minimum Humidity 42    
Precipitation  
Precipitation T in 0.08 in 1.19 in (1929)
Month to date precipitation T 0.08  
Year to date precipitation 5.86 4.92  
Snow  
Snow T in 0.30 in 12.50 in (1929)
Month to date snowfall T 0.3  
Since 1 July snowfall 45.5 78.6  
Snow Depth 1.00 in    
Sea Level Pressure  
Sea Level Pressure 29.91 in    
Wind  
Wind Speed 12 mph (WNW)    
Max Wind Speed 25 mph    
Max Gust Speed 33 mph    
Visibility 10 miles    
Events Snow    
T = Trace of Precipitation, MM = Missing Value Source: NWS Daily Summary

Daily Weather History Graph

Daily Weather History Graph

Search for Another Location

Airport:

Trip Planner

Search our weather history database for the weather conditions in past years. The results will help you decide how hot, cold, wet, or windy it might be!

Date:

Astronomy

Apr. 01, 2013 Rise Set
Actual Time 7:14 AM EDT 8:02 PM EDT
Civil Twilight 6:44 AM EDT 8:32 PM EDT
Nautical Twilight 6:09 AM EDT 9:07 PM EDT
Astronomical Twilight 5:32 AM EDT 9:44 PM EDT
Moon 1:21 AM EDT (4/1) 10:48 AM EDT (4/1)
Length of Visible Light 13h 47m
Length of Day
12h 48m
Waning Gibbous, 67% of the Moon is Illuminated
Apr 1
Waning Gibbous
Apr 3
Last Quarter
Apr 10
New
Apr 18
First Quarter
Apr 25
Full

Hourly Weather History & Observations

Time (EDT) Temp. Windchill Dew Point Humidity Pressure Visibility Wind Dir Wind Speed Gust Speed Precip Events Conditions
12:54 AM 28.0 °F 18.1 °F 16.0 °F 61% 29.69 in 10.0 mi NW 11.5 mph 25.3 mph N/A   Mostly Cloudy
1:54 AM 27.0 °F 18.0 °F 17.1 °F 66% 29.69 in 9.0 mi WNW 9.2 mph 23.0 mph 0.00 in   Overcast
2:54 AM 26.1 °F 15.0 °F 14.0 °F 60% 29.70 in 10.0 mi NW 12.7 mph 23.0 mph N/A   Overcast
3:54 AM 25.0 °F 12.6 °F 14.0 °F 63% 29.72 in 10.0 mi NW 15.0 mph 25.3 mph N/A   Overcast
4:54 AM 24.1 °F 11.5 °F 10.9 °F 57% 29.75 in 10.0 mi WNW 15.0 mph 27.6 mph N/A   Partly Cloudy
5:54 AM 23.0 °F 10.1 °F 10.9 °F 60% 29.77 in 10.0 mi WNW 15.0 mph 23.0 mph N/A   Overcast
6:54 AM 23.0 °F 13.1 °F 12.0 °F 63% 29.81 in 10.0 mi WNW 9.2 mph 31.1 mph N/A   Overcast
7:54 AM 21.9 °F 9.8 °F 12.0 °F 66% 29.85 in 10.0 mi NW 12.7 mph 25.3 mph N/A   Mostly Cloudy
8:54 AM 23.0 °F 12.4 °F 12.0 °F 63% 29.88 in 10.0 mi NW 10.4 mph 20.7 mph N/A   Mostly Cloudy
9:07 AM 24.8 °F 12.4 °F 12.2 °F 59% 29.85 in 10.0 mi WNW 15.0 mph 25.3 mph N/A   Partly Cloudy
9:54 AM 25.0 °F 11.3 °F 10.0 °F 53% 29.88 in 10.0 mi NW 18.4 mph 25.3 mph N/A   Partly Cloudy
10:54 AM 26.1 °F 13.1 °F 10.9 °F 53% 29.91 in 10.0 mi NW 17.3 mph 24.2 mph N/A   Overcast
11:54 AM 27.0 °F 15.6 °F 10.0 °F 49% 29.92 in 10.0 mi WNW 13.8 mph 27.6 mph N/A   Mostly Cloudy
12:54 PM 28.0 °F 17.0 °F 12.9 °F 53% 29.93 in 9.0 mi West 13.8 mph 23.0 mph 0.00 in   Mostly Cloudy
1:54 PM 28.9 °F 19.8 °F 10.0 °F 45% 29.94 in 10.0 mi West 10.4 mph 24.2 mph 0.00 in   Mostly Cloudy
2:54 PM 28.9 °F 19.2 °F 12.0 °F 49% 29.96 in 8.0 mi WNW 11.5 mph 21.9 mph 0.00 in Snow Light Snow
3:54 PM 28.0 °F 15.7 °F 10.0 °F 47% 29.97 in 10.0 mi West 17.3 mph 28.8 mph 0.00 in   Overcast
4:54 PM 28.0 °F 15.3 °F 9.0 °F 45% 29.99 in 10.0 mi West 18.4 mph 26.5 mph 0.00 in   Mostly Cloudy
5:54 PM 27.0 °F 18.0 °F 12.0 °F 53% 30.00 in 10.0 mi WNW 9.2 mph 29.9 mph 0.00 in   Overcast
6:54 PM 27.0 °F 16.7 °F 8.1 °F 45% 30.02 in 10.0 mi NW 11.5 mph 24.2 mph 0.00 in   Overcast
7:54 PM 24.1 °F 15.2 °F 8.1 °F 51% 30.03 in 10.0 mi NW 8.1 mph 19.6 mph N/A   Mostly Cloudy
8:54 PM 24.1 °F 13.7 °F 8.1 °F 51% 30.04 in 10.0 mi NW 10.4 mph 21.9 mph N/A   Overcast
9:54 PM 21.9 °F 12.5 °F 9.0 °F 58% 30.06 in 10.0 mi NW 8.1 mph - N/A   Scattered Clouds
10:54 PM 21.0 °F 12.4 °F 9.0 °F 60% 30.07 in 10.0 mi WNW 6.9 mph - N/A   Clear
11:54 PM 21.0 °F 14.6 °F 9.0 °F 60% 30.06 in 10.0 mi West 4.6 mph - N/A   Clear